Weather History for Salt Lake City, UT

Change the Weather History Date:

Friday, September 9, 2011

  Actual Average Record
Temperature  
Mean Temperature 72 °F 69 °F  
Max Temperature 86 °F 82 °F 95 °F (1990)
Min Temperature 57 °F 56 °F 34 °F (1962)
Degree Days  
Heating Degree Days 0 1  
Month to date heating degree days 0 8  
Since 1 July heating degree days 0 13  
Cooling Degree Days 7 5  
Month to date cooling degree days 52 59  
Year to date cooling degree days 1037 1095  
Growing Degree Days 22 (Base 50)    
Moisture  
Dew Point 42 °F    
Average Humidity 42    
Maximum Humidity 67    
Minimum Humidity 17    
Precipitation  
Precipitation T in 0.04 in 0.64 in (1986)
Month to date precipitation 0.01 0.29  
Year to date precipitation 15.79 10.80  
Snow  
Snow 0.00 in 0.00 in - ()
Month to date snowfall 0.0 0.0  
Since 1 July snowfall 0.0 0.0  
Snow Depth 0.00 in    
Sea Level Pressure  
Sea Level Pressure 29.96 in    
Wind  
Wind Speed 4 mph (WSW)    
Max Wind Speed 16 mph    
Max Gust Speed 22 mph    
Visibility 10 miles    
Events Rain , Thunderstorm    
T = Trace of Precipitation, MM = Missing Value Source: NWS Daily Summary

Daily Weather History Graph

Daily Weather History Graph

Search for Another Location

Airport:

Trip Planner

Search our weather history database for the weather conditions in past years. The results will help you decide how hot, cold, wet, or windy it might be!

Date:

Astronomy

Sep. 09, 2011 Rise Set
Actual Time 7:02 AM MDT 7:47 PM MDT
Civil Twilight 6:34 AM MDT 8:14 PM MDT
Nautical Twilight 6:01 AM MDT 8:47 PM MDT
Astronomical Twilight 5:27 AM MDT 9:21 PM MDT
Moon 6:15 PM MDT (9/9) 4:25 AM MDT (9/9)
Length of Visible Light 13h 40m
Length of Day
12h 44m
Waxing Gibbous, 93% of the Moon is Illuminated
Sep 9
Waxing Gibbous
Sep 12
Full
Sep 20
Last Quarter
Sep 27
New
Oct 3
First Quarter

Hourly Weather History & Observations

Time (MDT) Temp. Dew Point Humidity Pressure Visibility Wind Dir Wind Speed Gust Speed Precip Events Conditions
12:53 AM 64.0 °F 48.9 °F 58% 29.99 in 10.0 mi Calm Calm - N/A   Partly Cloudy
1:53 AM 63.0 °F 44.1 °F 50% 29.97 in 10.0 mi Calm Calm - N/A   Partly Cloudy
2:53 AM 60.1 °F 48.9 °F 67% 29.98 in 10.0 mi WSW 4.6 mph - N/A   Partly Cloudy
3:53 AM 61.0 °F 45.0 °F 56% 29.97 in 10.0 mi SE 3.5 mph - N/A   Partly Cloudy
4:53 AM 60.1 °F 46.0 °F 60% 29.98 in 10.0 mi Calm Calm - N/A   Scattered Clouds
5:53 AM 62.1 °F 44.1 °F 52% 29.97 in 10.0 mi Calm Calm - N/A   Scattered Clouds
6:53 AM 60.1 °F 45.0 °F 57% 29.99 in 10.0 mi NNW 3.5 mph - N/A   Mostly Cloudy
7:53 AM 62.1 °F 46.9 °F 58% 30.00 in 10.0 mi Calm Calm - N/A   Mostly Cloudy
8:53 AM 68.0 °F 46.9 °F 47% 29.99 in 10.0 mi West 4.6 mph - N/A   Scattered Clouds
9:53 AM 73.9 °F 43.0 °F 33% 29.98 in 10.0 mi NNW 3.5 mph - N/A   Scattered Clouds
10:53 AM 78.1 °F 43.0 °F 29% 29.97 in 10.0 mi NW 4.6 mph - N/A   Scattered Clouds
11:53 AM 80.1 °F 42.1 °F 26% 29.96 in 10.0 mi Calm Calm - N/A   Scattered Clouds
12:53 PM 82.9 °F 41.0 °F 23% 29.93 in 10.0 mi SSE 8.1 mph - N/A   Scattered Clouds
1:53 PM 82.9 °F 41.0 °F 23% 29.91 in 10.0 mi WNW 5.8 mph - N/A   Scattered Clouds
2:53 PM 84.9 °F 37.9 °F 19% 29.89 in 10.0 mi NNE 11.5 mph - 0.00 in Rain Light Rain
3:53 PM 84.9 °F 33.1 °F 16% 29.87 in 10.0 mi North 13.8 mph 21.9 mph 0.00 in   Mostly Cloudy
4:31 PM 84.2 °F 37.4 °F 19% 30.01 in 10.0 mi East 11.5 mph - N/A   Mostly Cloudy
4:53 PM 82.9 °F 36.0 °F 19% 29.86 in 10.0 mi ESE 9.2 mph 17.3 mph N/A   Mostly Cloudy
5:53 PM 84.0 °F 35.1 °F 17% 29.86 in 10.0 mi NW 10.4 mph - N/A   Mostly Cloudy
5:59 PM 84.2 °F 35.6 °F 18% 30.00 in 10.0 mi NNW 8.1 mph - N/A Thunderstorm Thunderstorm
6:25 PM 82.4 °F 33.8 °F 17% 30.01 in 10.0 mi SSE 10.4 mph - N/A   Mostly Cloudy
6:53 PM 78.1 °F 37.9 °F 24% 29.89 in 10.0 mi WSW 8.1 mph - N/A   Mostly Cloudy
7:53 PM 75.2 °F 39.2 °F 27% 30.04 in 10.0 mi Calm Calm - N/A   Mostly Cloudy
8:53 PM 73.4 °F 42.8 °F 33% 30.05 in 10.0 mi SE 5.8 mph - N/A   Mostly Cloudy
9:53 PM 70.0 °F 42.1 °F 36% 29.91 in 10.0 mi South 5.8 mph - N/A   Mostly Cloudy
10:53 PM 68.0 °F 44.1 °F 42% 29.91 in 10.0 mi South 8.1 mph - N/A   Mostly Cloudy
11:53 PM 69.1 °F 44.1 °F 40% 29.93 in 10.0 mi South 10.4 mph - N/A   Mostly Cloudy